Darstellungsparameter: Aktuell verwendete Einstellungen:
Skalierung der Graphiken ... ?
xyx+y,   Skalierungsfaktor:      Skalierung: Modus: x, Faktor: 1
Darstellungszeitraum ... ?
Vom - - bis: - -   Zeitraum: 24.05.2022 - 25.05.2022
Min/Max/Avg-Anzeige ... ?
Zeige MMA aktuell
Zeige MMA Monat
Zeige MMA alles
Zeige --A aktuell
Zeige --A Monat
Zeige --A alles
Keine MMA-Anzeige
MMA:
Average (ber die Originaldaten)
MMA-Basis: 24.05.2022 - 25.05.2022
Quicknavigation für Darstellung... ?
Tage:      1T, 2T, 3T, 5T -1T -2T -3T -5T +1T +2T +3T +5T
Wochen: 1W, 2W, 3W -1W -2W -3W +1W +2W +3W
Monate: 1M, 3M, 6M -1M -3M -6M +1M +3M +6M
Jahre:    1J, 3J, 5J, 10J -1J -3J -5J -10J +1J +3J +5J +10J
Nutze für die Darstellung ... ?
Originaldaten oder Mittelwerte auf ...
Stundenbasis Tagesbasis Wochenbasis
Monatsbasis Jahresbasis      Datenbasis: Original-Daten
Darstellen als:
Statistik (Auto) Statistik J:M      Darstellung:
Zur Graphik,    zurück zur Übersicht aller Sensoren.
 
Tabellarische Datenbersicht: ?
 
Sensor: Nr:Datum:Temp:Abs-Feuchte:Windchill:Wind:
Aussen-T/F 1 24-05-2022 00:00:00 17.1 C 11.94 g/m*3 17.1 C 11.3 km/h
2 24-05-2022 00:05:00 17.1 C 11.94 g/m*3 17.1 C 11.3 km/h
3 24-05-2022 00:10:00 17 C 12.01 g/m*3 17 C 9.7 km/h
4 24-05-2022 00:15:00 16.9 C 11.79 g/m*3 16.9 C 9.7 km/h
5 24-05-2022 00:20:00 16.9 C 11.94 g/m*3 16.9 C 11.3 km/h
6 24-05-2022 00:25:00 16.8 C 11.87 g/m*3 16.8 C 9.7 km/h
7 24-05-2022 00:30:00 16.7 C 11.51 g/m*3 16.7 C 11.3 km/h
8 24-05-2022 00:35:00 16.7 C 11.51 g/m*3 16.7 C 11.3 km/h
9 24-05-2022 00:40:00 16.6 C 11.44 g/m*3 16.6 C 14.5 km/h
10 24-05-2022 00:45:00 16.4 C 11.31 g/m*3 16.4 C 14.5 km/h
11 24-05-2022 00:50:00 16.4 C 11.31 g/m*3 16.4 C 14.5 km/h
12 24-05-2022 00:55:00 16.3 C 11.1 g/m*3 16.3 C 14.5 km/h
13 24-05-2022 01:00:00 16.3 C 11.24 g/m*3 16.3 C 9.7 km/h
14 24-05-2022 01:05:00 16.2 C 11.17 g/m*3 16.2 C 6.4 km/h
15 24-05-2022 01:10:00 16.2 C 11.17 g/m*3 16.2 C 3.2 km/h
16 24-05-2022 01:15:00 16.1 C 11.24 g/m*3 16.1 C 4.8 km/h
17 24-05-2022 01:20:00 16.1 C 11.24 g/m*3 16.1 C 3.2 km/h
18 24-05-2022 01:25:00 16.1 C 11.24 g/m*3 16.1 C 3.2 km/h
19 24-05-2022 01:30:00 16 C 11.17 g/m*3 16 C 6.4 km/h
20 24-05-2022 01:35:00 15.9 C 11.1 g/m*3 15.9 C 8.1 km/h
21 24-05-2022 01:40:00 15.8 C 11.04 g/m*3 15.8 C 4.8 km/h
22 24-05-2022 01:45:00 15.7 C 10.97 g/m*3 15.7 C 3.2 km/h
23 24-05-2022 01:50:00 15.6 C 11.04 g/m*3 15.6 C 4.8 km/h
24 24-05-2022 01:55:00 15.4 C 10.9 g/m*3 15.4 C 6.4 km/h
25 24-05-2022 02:00:00 15.3 C 10.84 g/m*3 15.3 C 3.2 km/h
Sensor: Nr:Datum:Temp:Abs-Feuchte:Windchill:Wind:
Aussen-T/F 26 24-05-2022 02:05:00 15.2 C 10.9 g/m*3 15.2 C 1.6 km/h
27 24-05-2022 02:10:00 15 C 10.77 g/m*3 15 C 1.6 km/h
28 24-05-2022 02:15:00 14.8 C 10.77 g/m*3 14.8 C 6.4 km/h
29 24-05-2022 02:20:00 14.7 C 10.7 g/m*3 14.7 C 3.2 km/h
30 24-05-2022 02:25:00 14.6 C 10.76 g/m*3 14.6 C 6.4 km/h
31 24-05-2022 02:30:00 14.6 C 10.76 g/m*3 14.6 C 6.4 km/h
32 24-05-2022 02:35:00 14.6 C 10.76 g/m*3 14.6 C 3.2 km/h
33 24-05-2022 02:40:00 14.4 C 10.63 g/m*3 14.4 C 4.8 km/h
34 24-05-2022 02:45:00 14.3 C 10.69 g/m*3 14.3 C 3.2 km/h
35 24-05-2022 02:50:00 14.3 C 10.69 g/m*3 14.3 C 4.8 km/h
36 24-05-2022 02:55:00 14.2 C 10.62 g/m*3 14.2 C 1.6 km/h
37 24-05-2022 03:00:00 14.2 C 10.75 g/m*3 14.2 C 4.8 km/h
38 24-05-2022 03:05:00 14.3 C 10.81 g/m*3 14.3 C 1.6 km/h
39 24-05-2022 03:10:00 14.2 C 10.75 g/m*3 14.2 C 3.2 km/h
40 24-05-2022 03:15:00 14.2 C 10.75 g/m*3 14.2 C 1.6 km/h
41 24-05-2022 03:20:00 14.3 C 10.81 g/m*3 14.3 C 6.4 km/h
42 24-05-2022 03:25:00 14.3 C 10.81 g/m*3 14.3 C 3.2 km/h
43 24-05-2022 03:30:00 14.4 C 10.88 g/m*3 14.4 C 0 km/h
44 24-05-2022 03:35:00 14.5 C 10.94 g/m*3 14.5 C 0 km/h
45 24-05-2022 03:40:00 14.6 C 11.01 g/m*3 14.6 C 1.6 km/h
46 24-05-2022 03:45:00 14.6 C 11.01 g/m*3 14.6 C 0 km/h
47 24-05-2022 03:50:00 14.7 C 11.08 g/m*3 14.7 C 0 km/h
48 24-05-2022 03:55:00 14.7 C 11.08 g/m*3 14.7 C 0 km/h
49 24-05-2022 04:00:00 14.7 C 11.08 g/m*3 14.7 C 0 km/h
50 24-05-2022 04:05:00 14.7 C 11.08 g/m*3 14.7 C 0 km/h
Sensor: Nr:Datum:Temp:Abs-Feuchte:Windchill:Wind:
Aussen-T/F 51 24-05-2022 04:10:00 14.7 C 11.08 g/m*3 14.7 C 0 km/h
52 24-05-2022 04:15:00 14.7 C 11.08 g/m*3 14.7 C 1.6 km/h
53 24-05-2022 04:20:00 14.7 C 11.08 g/m*3 14.7 C 0 km/h
54 24-05-2022 04:25:00 14.7 C 11.08 g/m*3 14.7 C 0 km/h
55 24-05-2022 04:30:00 14.7 C 11.08 g/m*3 14.7 C 0 km/h
56 24-05-2022 04:35:00 14.7 C 11.08 g/m*3 14.7 C 0 km/h
57 24-05-2022 04:40:00 14.7 C 11.08 g/m*3 14.7 C 0 km/h
58 24-05-2022 04:45:00 14.7 C 11.08 g/m*3 14.7 C 0 km/h
59 24-05-2022 04:50:00 14.7 C 11.08 g/m*3 14.7 C 1.6 km/h
60 24-05-2022 04:55:00 14.7 C 11.08 g/m*3 14.7 C 0 km/h
61 24-05-2022 05:00:00 14.7 C 11.08 g/m*3 14.7 C 0 km/h
62 24-05-2022 05:05:00 14.7 C 11.08 g/m*3 14.7 C 0 km/h
63 24-05-2022 05:10:00 14.7 C 10.95 g/m*3 14.7 C 0 km/h
64 24-05-2022 05:15:00 14.7 C 10.95 g/m*3 14.7 C 3.2 km/h
65 24-05-2022 05:20:00 14.7 C 10.95 g/m*3 14.7 C 1.6 km/h
66 24-05-2022 05:25:00 14.7 C 10.95 g/m*3 14.7 C 0 km/h
67 24-05-2022 05:30:00 14.8 C 11.02 g/m*3 14.8 C 0 km/h
68 24-05-2022 05:35:00 14.8 C 11.15 g/m*3 14.8 C 0 km/h
69 24-05-2022 05:40:00 14.8 C 11.15 g/m*3 14.8 C 0 km/h
70 24-05-2022 05:45:00 14.8 C 11.02 g/m*3 14.8 C 0 km/h
71 24-05-2022 05:50:00 14.8 C 11.15 g/m*3 14.8 C 0 km/h
72 24-05-2022 05:55:00 14.8 C 11.15 g/m*3 14.8 C 0 km/h
73 24-05-2022 06:00:00 14.8 C 11.15 g/m*3 14.8 C 1.6 km/h
74 24-05-2022 06:05:00 14.8 C 11.27 g/m*3 14.8 C 0 km/h
75 24-05-2022 06:10:00 14.8 C 11.27 g/m*3 14.8 C 0 km/h
Sensor: Nr:Datum:Temp:Abs-Feuchte:Windchill:Wind:
Aussen-T/F 76 24-05-2022 06:15:00 14.8 C 11.4 g/m*3 14.8 C 0 km/h
77 24-05-2022 06:20:00 14.7 C 11.33 g/m*3 14.7 C 1.6 km/h
78 24-05-2022 06:25:00 14.7 C 11.33 g/m*3 14.7 C 1.6 km/h
79 24-05-2022 06:30:00 14.7 C 11.33 g/m*3 14.7 C 0 km/h
80 24-05-2022 06:35:00 14.6 C 11.26 g/m*3 14.6 C 0 km/h
81 24-05-2022 06:40:00 14.6 C 11.39 g/m*3 14.6 C 0 km/h
82 24-05-2022 06:45:00 14.6 C 11.39 g/m*3 14.6 C 0 km/h
83 24-05-2022 06:50:00 14.6 C 11.39 g/m*3 14.6 C 0 km/h
84 24-05-2022 06:55:00 14.5 C 11.44 g/m*3 14.5 C 0 km/h
85 24-05-2022 07:00:00 14.5 C 11.44 g/m*3 14.5 C 0 km/h
86 24-05-2022 07:05:00 14.5 C 11.44 g/m*3 14.5 C 0 km/h
87 24-05-2022 07:10:00 14.4 C 11.37 g/m*3 14.4 C 3.2 km/h
88 24-05-2022 07:15:00 14.4 C 11.5 g/m*3 14.4 C 14.5 km/h
89 24-05-2022 07:20:00 14.3 C 11.43 g/m*3 14.3 C 16.1 km/h
90 24-05-2022 07:25:00 14.2 C 11.23 g/m*3 14.2 C 14.5 km/h
91 24-05-2022 07:30:00 13.9 C 11.03 g/m*3 13.9 C 12.9 km/h
92 24-05-2022 07:35:00 13.7 C 10.89 g/m*3 13.7 C 20.9 km/h
93 24-05-2022 07:40:00 13.5 C 10.76 g/m*3 13.5 C 17.7 km/h
94 24-05-2022 07:45:00 13.3 C 10.63 g/m*3 13.3 C 11.3 km/h
95 24-05-2022 07:50:00 13.2 C 10.56 g/m*3 13.2 C 6.4 km/h
96 24-05-2022 07:55:00 13.2 C 10.56 g/m*3 13.2 C 4.8 km/h
97 24-05-2022 08:00:00 13.1 C 10.61 g/m*3 13.1 C 4.8 km/h
98 24-05-2022 08:05:00 13.1 C 10.61 g/m*3 13.1 C 3.2 km/h
99 24-05-2022 08:10:00 13.1 C 10.61 g/m*3 13.1 C 0 km/h
100 24-05-2022 08:15:00 13.1 C 10.61 g/m*3 13.1 C 1.6 km/h
Sensor: Nr:Datum:Temp:Abs-Feuchte:Windchill:Wind:
Aussen-T/F 101 24-05-2022 08:20:00 13.2 C 10.79 g/m*3 13.2 C 1.6 km/h
102 24-05-2022 08:25:00 13.4 C 10.93 g/m*3 13.4 C 0 km/h
103 24-05-2022 08:30:00 13.6 C 11.06 g/m*3 13.6 C 0 km/h
104 24-05-2022 08:35:00 13.7 C 11.13 g/m*3 13.7 C 3.2 km/h
105 24-05-2022 08:40:00 13.7 C 11.13 g/m*3 13.7 C 4.8 km/h
106 24-05-2022 08:45:00 13.7 C 11.13 g/m*3 13.7 C 3.2 km/h
107 24-05-2022 08:50:00 13.7 C 11.13 g/m*3 13.7 C 3.2 km/h
108 24-05-2022 08:55:00 13.7 C 11.13 g/m*3 13.7 C 0 km/h
109 24-05-2022 09:00:00 13.8 C 11.2 g/m*3 13.8 C 4.8 km/h
110 24-05-2022 09:05:00 13.8 C 11.2 g/m*3 13.8 C 6.4 km/h
111 24-05-2022 09:10:00 13.8 C 11.2 g/m*3 13.8 C 6.4 km/h
112 24-05-2022 09:15:00 13.6 C 11.06 g/m*3 13.6 C 12.9 km/h
113 24-05-2022 09:20:00 13.6 C 11.06 g/m*3 13.6 C 8.1 km/h
114 24-05-2022 09:25:00 13.5 C 10.99 g/m*3 13.5 C 4.8 km/h
115 24-05-2022 09:30:00 13.6 C 11.06 g/m*3 13.6 C 6.4 km/h
116 24-05-2022 09:35:00 13.7 C 11.13 g/m*3 13.7 C 11.3 km/h
117 24-05-2022 09:40:00 13.9 C 11.27 g/m*3 13.9 C 16.1 km/h
118 24-05-2022 09:45:00 13.9 C 11.27 g/m*3 13.9 C 11.3 km/h
119 24-05-2022 09:50:00 14.1 C 11.41 g/m*3 14.1 C 8.1 km/h
120 24-05-2022 09:55:00 14.3 C 11.43 g/m*3 14.3 C 11.3 km/h
121 24-05-2022 10:00:00 14.3 C 11.43 g/m*3 14.3 C 9.7 km/h
122 24-05-2022 10:05:00 14.2 C 11.23 g/m*3 14.2 C 9.7 km/h
123 24-05-2022 10:10:00 14.2 C 11.23 g/m*3 14.2 C 8.1 km/h
124 24-05-2022 10:15:00 14.1 C 11.17 g/m*3 14.1 C 16.1 km/h
125 24-05-2022 10:20:00 14.1 C 11.17 g/m*3 14.1 C 12.9 km/h
Sensor: Nr:Datum:Temp:Abs-Feuchte:Windchill:Wind:
Aussen-T/F 126 24-05-2022 10:25:00 14.1 C 11.17 g/m*3 14.1 C 8.1 km/h
127 24-05-2022 10:30:00 14.2 C 11.36 g/m*3 14.2 C 9.7 km/h
128 24-05-2022 10:35:00 14.2 C 11.23 g/m*3 14.2 C 14.5 km/h
129 24-05-2022 10:40:00 14.3 C 11.3 g/m*3 14.3 C 11.3 km/h
130 24-05-2022 10:45:00 14.5 C 11.44 g/m*3 14.5 C 11.3 km/h
131 24-05-2022 10:50:00 14.6 C 11.26 g/m*3 14.6 C 9.7 km/h
132 24-05-2022 10:55:00 14.6 C 11.01 g/m*3 14.6 C 19.3 km/h
133 24-05-2022 11:00:00 14.5 C 10.82 g/m*3 14.5 C 11.3 km/h
134 24-05-2022 11:05:00 14.6 C 11.01 g/m*3 14.6 C 11.3 km/h
135 24-05-2022 11:10:00 14.7 C 11.08 g/m*3 14.7 C 9.7 km/h
136 24-05-2022 11:15:00 14.9 C 11.09 g/m*3 14.9 C 4.8 km/h
137 24-05-2022 11:20:00 15.2 C 11.16 g/m*3 15.2 C 14.5 km/h
138 24-05-2022 11:25:00 15.2 C 10.77 g/m*3 15.2 C 11.3 km/h
139 24-05-2022 11:30:00 15.4 C 11.17 g/m*3 15.4 C 14.5 km/h
140 24-05-2022 11:35:00 15.6 C 10.91 g/m*3 15.6 C 12.9 km/h
141 24-05-2022 11:40:00 15.8 C 11.04 g/m*3 15.8 C 14.5 km/h
142 24-05-2022 11:45:00 15.9 C 10.83 g/m*3 15.9 C 19.3 km/h
143 24-05-2022 11:50:00 16.1 C 10.97 g/m*3 16.1 C 11.3 km/h
144 24-05-2022 11:55:00 16.2 C 11.03 g/m*3 16.2 C 9.7 km/h
145 24-05-2022 12:00:00 16.3 C 10.68 g/m*3 16.3 C 14.5 km/h
146 24-05-2022 12:05:00 16.3 C 10.82 g/m*3 16.3 C 24.1 km/h
147 24-05-2022 12:10:00 16.2 C 10.34 g/m*3 16.2 C 17.7 km/h
148 24-05-2022 12:15:00 16.3 C 10.82 g/m*3 16.3 C 17.7 km/h
149 24-05-2022 12:20:00 16.5 C 10.81 g/m*3 16.5 C 14.5 km/h
150 24-05-2022 12:25:00 16.8 C 10.87 g/m*3 16.8 C 17.7 km/h
Sensor: Nr:Datum:Temp:Abs-Feuchte:Windchill:Wind:
Aussen-T/F 151 24-05-2022 12:30:00 17.1 C 10.63 g/m*3 17.1 C 20.9 km/h
152 24-05-2022 12:35:00 16.9 C 10.5 g/m*3 16.9 C 19.3 km/h
153 24-05-2022 12:40:00 16.5 C 9.97 g/m*3 16.5 C 12.9 km/h
154 24-05-2022 12:45:00 16.2 C 10.07 g/m*3 16.2 C 11.3 km/h
155 24-05-2022 12:50:00 16 C 10.22 g/m*3 16 C 14.5 km/h
156 24-05-2022 12:55:00 16.1 C 10.28 g/m*3 16.1 C 14.5 km/h
157 24-05-2022 13:00:00 16.5 C 10.53 g/m*3 16.5 C 14.5 km/h
158 24-05-2022 13:05:00 16.8 C 10.58 g/m*3 16.8 C 12.9 km/h
159 24-05-2022 13:10:00 17.2 C 10.84 g/m*3 17.2 C 14.5 km/h
160 24-05-2022 13:15:00 17.3 C 10.75 g/m*3 17.3 C 12.9 km/h
161 24-05-2022 13:20:00 17.4 C 10.67 g/m*3 17.4 C 19.3 km/h
162 24-05-2022 13:25:00 17.5 C 10.59 g/m*3 17.5 C 14.5 km/h
163 24-05-2022 13:30:00 17.6 C 10.5 g/m*3 17.6 C 20.9 km/h
164 24-05-2022 13:35:00 17.8 C 10.32 g/m*3 17.8 C 12.9 km/h
165 24-05-2022 13:40:00 17.9 C 10.23 g/m*3 17.9 C 9.7 km/h
166 24-05-2022 13:45:00 17.6 C 9.6 g/m*3 17.6 C 12.9 km/h
167 24-05-2022 13:50:00 17.3 C 10.16 g/m*3 17.3 C 6.4 km/h
168 24-05-2022 13:55:00 17.1 C 10.34 g/m*3 17.1 C 4.8 km/h
169 24-05-2022 14:00:00 17 C 10.27 g/m*3 17 C 3.2 km/h
170 24-05-2022 14:05:00 16.9 C 10.79 g/m*3 16.9 C 3.2 km/h
171 24-05-2022 14:10:00 17 C 10.56 g/m*3 17 C 8.1 km/h
172 24-05-2022 14:15:00 17.4 C 10.97 g/m*3 17.4 C 6.4 km/h
173 24-05-2022 14:20:00 17.8 C 10.78 g/m*3 17.8 C 12.9 km/h
174 24-05-2022 14:25:00 18 C 10.6 g/m*3 18 C 16.1 km/h
175 24-05-2022 14:30:00 17.9 C 10.54 g/m*3 17.9 C 12.9 km/h
Sensor: Nr:Datum:Temp:Abs-Feuchte:Windchill:Wind:
Aussen-T/F 176 24-05-2022 14:35:00 18 C 10.29 g/m*3 18 C 14.5 km/h
177 24-05-2022 14:40:00 18.3 C 10.63 g/m*3 18.3 C 9.7 km/h
178 24-05-2022 14:45:00 18.8 C 9.82 g/m*3 18.8 C 22.5 km/h
179 24-05-2022 14:50:00 19.1 C 9.84 g/m*3 19.1 C 19.3 km/h
180 24-05-2022 14:55:00 19.2 C 9.89 g/m*3 19.2 C 17.7 km/h
181 24-05-2022 15:00:00 19.2 C 10.22 g/m*3 19.2 C 12.9 km/h
182 24-05-2022 15:05:00 19.2 C 9.89 g/m*3 19.2 C 16.1 km/h
183 24-05-2022 15:10:00 19.1 C 10.49 g/m*3 19.1 C 20.9 km/h
184 24-05-2022 15:15:00 19.3 C 10.45 g/m*3 19.3 C 19.3 km/h
185 24-05-2022 15:20:00 19.6 C 10.97 g/m*3 19.6 C 22.5 km/h
186 24-05-2022 15:25:00 19.8 C 10.25 g/m*3 19.8 C 16.1 km/h
187 24-05-2022 15:30:00 19.7 C 10.36 g/m*3 19.7 C 16.1 km/h
188 24-05-2022 15:35:00 19.7 C 10.36 g/m*3 19.7 C 14.5 km/h
189 24-05-2022 15:40:00 19.8 C 10.08 g/m*3 19.8 C 17.7 km/h
190 24-05-2022 15:45:00 19.8 C 10.08 g/m*3 19.8 C 16.1 km/h
191 24-05-2022 15:50:00 19.8 C 10.25 g/m*3 19.8 C 9.7 km/h
192 24-05-2022 15:55:00 19.4 C 9.84 g/m*3 19.4 C 19.3 km/h
193 24-05-2022 16:00:00 19.1 C 10.33 g/m*3 19.1 C 8.1 km/h
194 24-05-2022 16:05:00 18.8 C 10.15 g/m*3 18.8 C 12.9 km/h
195 24-05-2022 16:10:00 18.2 C 9.79 g/m*3 18.2 C 19.3 km/h
196 24-05-2022 16:15:00 17.7 C 10.11 g/m*3 17.7 C 14.5 km/h
197 24-05-2022 16:20:00 17.5 C 9.84 g/m*3 17.5 C 11.3 km/h
198 24-05-2022 16:25:00 17.7 C 9.81 g/m*3 17.7 C 19.3 km/h
199 24-05-2022 16:30:00 18 C 9.83 g/m*3 18 C 12.9 km/h
200 24-05-2022 16:35:00 18.3 C 10.32 g/m*3 18.3 C 11.3 km/h
Sensor: Nr:Datum:Temp:Abs-Feuchte:Windchill:Wind:
Aussen-T/F 201 24-05-2022 16:40:00 18.4 C 9.59 g/m*3 18.4 C 12.9 km/h
202 24-05-2022 16:45:00 18.2 C 9.33 g/m*3 18.2 C 33.8 km/h
203 24-05-2022 16:50:00 18 C 9.83 g/m*3 18 C 16.1 km/h
204 24-05-2022 16:55:00 17.8 C 9.87 g/m*3 17.8 C 12.9 km/h
205 24-05-2022 17:00:00 17.8 C 9.56 g/m*3 17.8 C 9.7 km/h
206 24-05-2022 17:05:00 17.9 C 9.47 g/m*3 17.9 C 11.3 km/h
207 24-05-2022 17:10:00 17.8 C 9.41 g/m*3 17.8 C 12.9 km/h
208 24-05-2022 17:15:00 17.6 C 9.45 g/m*3 17.6 C 14.5 km/h
209 24-05-2022 17:20:00 17.4 C 9.04 g/m*3 17.4 C 14.5 km/h
210 24-05-2022 17:25:00 17.2 C 8.93 g/m*3 17.2 C 12.9 km/h
211 24-05-2022 17:30:00 17.1 C 9.32 g/m*3 17.1 C 9.7 km/h
212 24-05-2022 17:35:00 17.1 C 9.32 g/m*3 17.1 C 6.4 km/h
213 24-05-2022 17:40:00 17.1 C 9.75 g/m*3 17.1 C 3.2 km/h
214 24-05-2022 17:45:00 17.2 C 9.67 g/m*3 17.2 C 1.6 km/h
215 24-05-2022 17:50:00 17.4 C 9.63 g/m*3 17.4 C 12.9 km/h
216 24-05-2022 17:55:00 17.6 C 9.6 g/m*3 17.6 C 8.1 km/h
217 24-05-2022 18:00:00 17.7 C 9.96 g/m*3 17.7 C 6.4 km/h
218 24-05-2022 18:05:00 17.7 C 9.66 g/m*3 17.7 C 6.4 km/h
219 24-05-2022 18:10:00 17.7 C 9.81 g/m*3 17.7 C 8.1 km/h
220 24-05-2022 18:15:00 17.7 C 9.66 g/m*3 17.7 C 9.7 km/h
221 24-05-2022 18:20:00 17.8 C 10.02 g/m*3 17.8 C 6.4 km/h
222 24-05-2022 18:25:00 17.8 C 10.17 g/m*3 17.8 C 6.4 km/h
223 24-05-2022 18:30:00 17.8 C 9.87 g/m*3 17.8 C 6.4 km/h
224 24-05-2022 18:35:00 17.8 C 10.17 g/m*3 17.8 C 4.8 km/h
225 24-05-2022 18:40:00 17.8 C 10.02 g/m*3 17.8 C 4.8 km/h
Sensor: Nr:Datum:Temp:Abs-Feuchte:Windchill:Wind:
Aussen-T/F 226 24-05-2022 18:45:00 17.9 C 10.23 g/m*3 17.9 C 6.4 km/h
227 24-05-2022 18:50:00 17.9 C 9.92 g/m*3 17.9 C 6.4 km/h
228 24-05-2022 18:55:00 17.8 C 9.87 g/m*3 17.8 C 3.2 km/h
229 24-05-2022 19:00:00 17.7 C 10.26 g/m*3 17.7 C 4.8 km/h
230 24-05-2022 19:05:00 17.6 C 10.2 g/m*3 17.6 C 4.8 km/h
231 24-05-2022 19:10:00 17.4 C 9.93 g/m*3 17.4 C 11.3 km/h
232 24-05-2022 19:15:00 17.2 C 10.25 g/m*3 17.2 C 8.1 km/h
233 24-05-2022 19:20:00 17.1 C 9.9 g/m*3 17.1 C 4.8 km/h
234 24-05-2022 19:25:00 16.8 C 9.87 g/m*3 16.8 C 14.5 km/h
235 24-05-2022 19:30:00 16.4 C 9.77 g/m*3 16.4 C 17.7 km/h
236 24-05-2022 19:35:00 16.2 C 9.52 g/m*3 16.2 C 4.8 km/h
237 24-05-2022 19:40:00 15.9 C 9.48 g/m*3 15.9 C 12.9 km/h
238 24-05-2022 19:45:00 15.8 C 9.69 g/m*3 15.8 C 8.1 km/h
239 24-05-2022 19:50:00 15.7 C 9.37 g/m*3 15.7 C 8.1 km/h
240 24-05-2022 19:55:00 15.7 C 9.5 g/m*3 15.7 C 8.1 km/h
241 24-05-2022 20:00:00 15.6 C 9.31 g/m*3 15.6 C 8.1 km/h
242 24-05-2022 20:05:00 15.4 C 9.46 g/m*3 15.4 C 6.4 km/h
243 24-05-2022 20:10:00 15.4 C 9.46 g/m*3 15.4 C 3.2 km/h
244 24-05-2022 20:15:00 15.3 C 9.53 g/m*3 15.3 C 4.8 km/h
245 24-05-2022 20:20:00 15.3 C 9.79 g/m*3 15.3 C 3.2 km/h
246 24-05-2022 20:25:00 15.2 C 9.61 g/m*3 15.2 C 3.2 km/h
247 24-05-2022 20:30:00 15.1 C 9.55 g/m*3 15.1 C 3.2 km/h
248 24-05-2022 20:35:00 14.9 C 9.56 g/m*3 14.9 C 8.1 km/h
249 24-05-2022 20:40:00 14.8 C 9.63 g/m*3 14.8 C 4.8 km/h
250 24-05-2022 20:45:00 14.6 C 9.64 g/m*3 14.6 C 4.8 km/h
Sensor: Nr:Datum:Temp:Abs-Feuchte:Windchill:Wind:
Aussen-T/F 251 24-05-2022 20:50:00 14.3 C 9.46 g/m*3 14.3 C 4.8 km/h
252 24-05-2022 20:55:00 14.1 C 9.59 g/m*3 14.1 C 6.4 km/h
253 24-05-2022 21:00:00 13.9 C 9.59 g/m*3 13.9 C 1.6 km/h
254 24-05-2022 21:05:00 13.8 C 9.65 g/m*3 13.8 C 3.2 km/h
255 24-05-2022 21:10:00 13.6 C 9.53 g/m*3 13.6 C 3.2 km/h
256 24-05-2022 21:15:00 13.4 C 9.53 g/m*3 13.4 C 0 km/h
257 24-05-2022 21:20:00 13.2 C 9.53 g/m*3 13.2 C 0 km/h
258 24-05-2022 21:25:00 13.1 C 9.59 g/m*3 13.1 C 0 km/h
259 24-05-2022 21:30:00 12.8 C 9.41 g/m*3 12.8 C 0 km/h
260 24-05-2022 21:35:00 12.6 C 9.29 g/m*3 12.6 C 0 km/h
261 24-05-2022 21:40:00 12.4 C 9.29 g/m*3 12.4 C 0 km/h
262 24-05-2022 21:45:00 12.2 C 9.17 g/m*3 12.2 C 0 km/h
263 24-05-2022 21:50:00 12.1 C 9.22 g/m*3 12.1 C 3.2 km/h
264 24-05-2022 21:55:00 11.9 C 9.21 g/m*3 11.9 C 4.8 km/h
265 24-05-2022 22:00:00 11.9 C 9.21 g/m*3 11.9 C 6.4 km/h
266 24-05-2022 22:05:00 11.8 C 9.16 g/m*3 11.8 C 4.8 km/h
267 24-05-2022 22:10:00 11.8 C 9.26 g/m*3 11.8 C 3.2 km/h
268 24-05-2022 22:15:00 11.8 C 9.26 g/m*3 11.8 C 0 km/h
269 24-05-2022 22:20:00 11.7 C 9.2 g/m*3 11.7 C 1.6 km/h
270 24-05-2022 22:25:00 11.7 C 9.2 g/m*3 11.7 C 0 km/h
271 24-05-2022 22:30:00 11.7 C 9.2 g/m*3 11.7 C 0 km/h
272 24-05-2022 22:35:00 11.6 C 9.25 g/m*3 11.6 C 0 km/h
273 24-05-2022 22:40:00 11.6 C 9.25 g/m*3 11.6 C 0 km/h
274 24-05-2022 22:45:00 11.6 C 9.25 g/m*3 11.6 C 0 km/h
275 24-05-2022 22:50:00 11.6 C 9.25 g/m*3 11.6 C 0 km/h
Sensor: Nr:Datum:Temp:Abs-Feuchte:Windchill:Wind:
Aussen-T/F 276 24-05-2022 22:55:00 11.5 C 9.3 g/m*3 11.5 C 0 km/h
277 24-05-2022 23:00:00 11.5 C 9.3 g/m*3 11.5 C 0 km/h
278 24-05-2022 23:05:00 11.5 C 9.3 g/m*3 11.5 C 0 km/h
279 24-05-2022 23:10:00 11.6 C 9.46 g/m*3 11.6 C 0 km/h
280 24-05-2022 23:15:00 11.6 C 9.46 g/m*3 11.6 C 0 km/h
281 24-05-2022 23:20:00 11.6 C 9.46 g/m*3 11.6 C 0 km/h
282 24-05-2022 23:25:00 11.6 C 9.46 g/m*3 11.6 C 0 km/h
283 24-05-2022 23:30:00 11.6 C 9.46 g/m*3 11.6 C 0 km/h
284 24-05-2022 23:35:00 11.6 C 9.46 g/m*3 11.6 C 0 km/h
285 24-05-2022 23:40:00 11.5 C 9.3 g/m*3 11.5 C 0 km/h
286 24-05-2022 23:45:00 11.4 C 9.24 g/m*3 11.4 C 0 km/h
287 24-05-2022 23:50:00 11.3 C 9.18 g/m*3 11.3 C 0 km/h
288 24-05-2022 23:55:00 11.3 C 9.28 g/m*3 11.3 C 0 km/h
289 25-05-2022 00:00:00 11.2 C 9.22 g/m*3 11.2 C 0 km/h
290 25-05-2022 00:05:00 11.2 C 9.22 g/m*3 11.2 C 1.6 km/h
291 25-05-2022 00:10:00 11.1 C 9.17 g/m*3 11.1 C 0 km/h
292 25-05-2022 00:15:00 11.1 C 9.17 g/m*3 11.1 C 0 km/h
293 25-05-2022 00:20:00 11 C 9.11 g/m*3 11 C 0 km/h
294 25-05-2022 00:25:00 10.9 C 9.05 g/m*3 10.9 C 0 km/h
295 25-05-2022 00:30:00 10.9 C 9.05 g/m*3 10.9 C 0 km/h
296 25-05-2022 00:35:00 10.9 C 9.15 g/m*3 10.9 C 0 km/h
297 25-05-2022 00:40:00 10.8 C 9.09 g/m*3 10.8 C 0 km/h
298 25-05-2022 00:45:00 10.8 C 9.09 g/m*3 10.8 C 0 km/h
299 25-05-2022 00:50:00 10.8 C 9.09 g/m*3 10.8 C 0 km/h
300 25-05-2022 00:55:00 10.8 C 9.09 g/m*3 10.8 C 0 km/h
Sensor: Nr:Datum:Temp:Abs-Feuchte:Windchill:Wind:
Aussen-T/F 301 25-05-2022 01:00:00 10.8 C 9.09 g/m*3 10.8 C 0 km/h
302 25-05-2022 01:05:00 10.7 C 9.04 g/m*3 10.7 C 0 km/h
303 25-05-2022 01:10:00 10.7 C 9.04 g/m*3 10.7 C 0 km/h
304 25-05-2022 01:15:00 10.7 C 9.04 g/m*3 10.7 C 1.6 km/h
305 25-05-2022 01:20:00 10.7 C 9.13 g/m*3 10.7 C 0 km/h
306 25-05-2022 01:25:00 10.7 C 9.13 g/m*3 10.7 C 0 km/h
307 25-05-2022 01:30:00 10.7 C 9.13 g/m*3 10.7 C 0 km/h
308 25-05-2022 01:35:00 10.8 C 9.19 g/m*3 10.8 C 0 km/h
309 25-05-2022 01:40:00 10.8 C 9.19 g/m*3 10.8 C 0 km/h
310 25-05-2022 01:45:00 10.8 C 9.19 g/m*3 10.8 C 0 km/h
311 25-05-2022 01:50:00 10.8 C 9.19 g/m*3 10.8 C 0 km/h
312 25-05-2022 01:55:00 10.9 C 9.25 g/m*3 10.9 C 0 km/h
313 25-05-2022 02:00:00 10.9 C 9.25 g/m*3 10.9 C 0 km/h
314 25-05-2022 02:05:00 10.9 C 9.25 g/m*3 10.9 C 0 km/h
315 25-05-2022 02:10:00 10.9 C 9.25 g/m*3 10.9 C 0 km/h
316 25-05-2022 02:15:00 10.8 C 9.19 g/m*3 10.8 C 0 km/h
317 25-05-2022 02:20:00 10.7 C 9.13 g/m*3 10.7 C 0 km/h
318 25-05-2022 02:25:00 10.6 C 9.08 g/m*3 10.6 C 0 km/h
319 25-05-2022 02:30:00 10.6 C 9.08 g/m*3 10.6 C 0 km/h
320 25-05-2022 02:35:00 10.5 C 9.02 g/m*3 10.5 C 0 km/h
321 25-05-2022 02:40:00 10.4 C 8.96 g/m*3 10.4 C 0 km/h
322 25-05-2022 02:45:00 10.4 C 8.96 g/m*3 10.4 C 0 km/h
323 25-05-2022 02:50:00 10.3 C 8.91 g/m*3 10.3 C 0 km/h
324 25-05-2022 02:55:00 10.2 C 8.85 g/m*3 10.2 C 1.6 km/h
325 25-05-2022 03:00:00 10.2 C 8.85 g/m*3 10.2 C 3.2 km/h
Sensor: Nr:Datum:Temp:Abs-Feuchte:Windchill:Wind:
Aussen-T/F 326 25-05-2022 03:05:00 10.1 C 8.79 g/m*3 10.1 C 1.6 km/h
327 25-05-2022 03:10:00 10 C 8.74 g/m*3 10 C 1.6 km/h
328 25-05-2022 03:15:00 9.9 C 8.68 g/m*3 9.9 C 0 km/h
329 25-05-2022 03:20:00 9.8 C 8.63 g/m*3 9.8 C 1.6 km/h
330 25-05-2022 03:25:00 9.8 C 8.63 g/m*3 9.8 C 4.8 km/h
331 25-05-2022 03:30:00 9.7 C 8.57 g/m*3 9.7 C 4.8 km/h
332 25-05-2022 03:35:00 9.7 C 8.57 g/m*3 9.7 C 0 km/h
333 25-05-2022 03:40:00 9.6 C 8.52 g/m*3 9.6 C 1.6 km/h
334 25-05-2022 03:45:00 9.5 C 8.47 g/m*3 9.5 C 1.6 km/h
335 25-05-2022 03:50:00 9.4 C 8.41 g/m*3 9.4 C 1.6 km/h
336 25-05-2022 03:55:00 9.3 C 8.36 g/m*3 9.3 C 0 km/h
337 25-05-2022 04:00:00 9.3 C 8.36 g/m*3 9.3 C 0 km/h
338 25-05-2022 04:05:00 9.2 C 8.3 g/m*3 9.2 C 0 km/h
339 25-05-2022 04:10:00 9.1 C 8.25 g/m*3 9.1 C 0 km/h
340 25-05-2022 04:15:00 9.1 C 8.34 g/m*3 9.1 C 3.2 km/h
341 25-05-2022 04:20:00 9.1 C 8.34 g/m*3 9.1 C 1.6 km/h
342 25-05-2022 04:25:00 9.1 C 8.34 g/m*3 9.1 C 0 km/h
343 25-05-2022 04:30:00 8.9 C 8.15 g/m*3 8.9 C 0 km/h
344 25-05-2022 04:35:00 8.9 C 8.15 g/m*3 8.9 C 0 km/h
345 25-05-2022 04:40:00 8.8 C 8.18 g/m*3 8.8 C 1.6 km/h
346 25-05-2022 04:45:00 8.8 C 8.18 g/m*3 8.8 C 0 km/h
347 25-05-2022 04:50:00 8.7 C 8.04 g/m*3 8.7 C 0 km/h
348 25-05-2022 04:55:00 8.7 C 8.13 g/m*3 8.7 C 0 km/h
349 25-05-2022 05:00:00 8.6 C 8.08 g/m*3 8.6 C 0 km/h
350 25-05-2022 05:05:00 8.6 C 8.08 g/m*3 8.6 C 0 km/h
Sensor: Nr:Datum:Temp:Abs-Feuchte:Windchill:Wind:
Aussen-T/F 351 25-05-2022 05:10:00 8.5 C 8.03 g/m*3 8.5 C 0 km/h
352 25-05-2022 05:15:00 8.5 C 8.03 g/m*3 8.5 C 0 km/h
353 25-05-2022 05:20:00 8.4 C 7.97 g/m*3 8.4 C 0 km/h
354 25-05-2022 05:25:00 8.4 C 7.97 g/m*3 8.4 C 0 km/h
355 25-05-2022 05:30:00 8.4 C 7.97 g/m*3 8.4 C 0 km/h
356 25-05-2022 05:35:00 8.4 C 7.97 g/m*3 8.4 C 1.6 km/h
357 25-05-2022 05:40:00 8.5 C 8.03 g/m*3 8.5 C 4.8 km/h
358 25-05-2022 05:45:00 8.6 C 8.08 g/m*3 8.6 C 1.6 km/h
359 25-05-2022 05:50:00 8.6 C 8.16 g/m*3 7.75 C 6.4 km/h
360 25-05-2022 05:55:00 8.7 C 8.22 g/m*3 7.87 C 6.4 km/h
361 25-05-2022 06:00:00 8.7 C 8.22 g/m*3 8.7 C 3.2 km/h
362 25-05-2022 06:05:00 8.8 C 8.27 g/m*3 7.58 C 8.1 km/h
363 25-05-2022 06:10:00 8.8 C 8.27 g/m*3 8.8 C 4.8 km/h
364 25-05-2022 06:15:00 8.9 C 8.32 g/m*3 8.9 C 3.2 km/h
365 25-05-2022 06:20:00 8.9 C 8.32 g/m*3 8.9 C 4.8 km/h
366 25-05-2022 06:25:00 9 C 8.38 g/m*3 7.81 C 8.1 km/h
367 25-05-2022 06:30:00 9 C 8.38 g/m*3 9 C 1.6 km/h
368 25-05-2022 06:35:00 9 C 8.38 g/m*3 9 C 0 km/h
369 25-05-2022 06:40:00 8.9 C 8.32 g/m*3 8.9 C 1.6 km/h
370 25-05-2022 06:45:00 8.9 C 8.32 g/m*3 8.9 C 4.8 km/h
371 25-05-2022 06:50:00 9 C 8.38 g/m*3 9 C 3.2 km/h
372 25-05-2022 06:55:00 9.1 C 8.43 g/m*3 9.1 C 1.6 km/h
373 25-05-2022 07:00:00 9.1 C 8.43 g/m*3 9.1 C 0 km/h
374 25-05-2022 07:05:00 9.1 C 8.43 g/m*3 9.1 C 1.6 km/h
375 25-05-2022 07:10:00 9.1 C 8.43 g/m*3 9.1 C 0 km/h
Sensor: Nr:Datum:Temp:Abs-Feuchte:Windchill:Wind:
Aussen-T/F 376 25-05-2022 07:15:00 9.1 C 8.43 g/m*3 9.1 C 1.6 km/h
377 25-05-2022 07:20:00 9.1 C 8.43 g/m*3 9.1 C 3.2 km/h
378 25-05-2022 07:25:00 9.2 C 8.48 g/m*3 9.2 C 4.8 km/h
379 25-05-2022 07:30:00 9.3 C 8.54 g/m*3 8.56 C 6.4 km/h
380 25-05-2022 07:35:00 9.6 C 8.79 g/m*3 8.21 C 9.7 km/h
381 25-05-2022 07:40:00 9.7 C 8.85 g/m*3 9.02 C 6.4 km/h
382 25-05-2022 07:45:00 9.8 C 8.91 g/m*3 9.14 C 6.4 km/h
383 25-05-2022 07:50:00 9.9 C 8.96 g/m*3 8.56 C 9.7 km/h
384 25-05-2022 07:55:00 10.2 C 9.04 g/m*3 8.92 C 9.7 km/h
385 25-05-2022 08:00:00 10.3 C 9.1 g/m*3 9.34 C 8.1 km/h
386 25-05-2022 08:05:00 10.3 C 9.1 g/m*3 9.34 C 8.1 km/h
387 25-05-2022 08:10:00 10.5 C 9.21 g/m*3 9.57 C 8.1 km/h
388 25-05-2022 08:15:00 10.6 C 9.17 g/m*3 10.06 C 6.4 km/h
389 25-05-2022 08:20:00 10.8 C 9.29 g/m*3 9.93 C 8.1 km/h
390 25-05-2022 08:25:00 10.9 C 9.35 g/m*3 10.9 C 4.8 km/h
391 25-05-2022 08:30:00 11.1 C 9.37 g/m*3 11.1 C 8.1 km/h
392 25-05-2022 08:35:00 11.2 C 9.43 g/m*3 11.2 C 6.4 km/h
393 25-05-2022 08:40:00 11.3 C 9.38 g/m*3 11.3 C 8.1 km/h
394 25-05-2022 08:45:00 11.6 C 9.46 g/m*3 11.6 C 9.7 km/h
395 25-05-2022 08:50:00 11.8 C 9.47 g/m*3 11.8 C 11.3 km/h
396 25-05-2022 08:55:00 11.9 C 9.43 g/m*3 11.9 C 6.4 km/h
397 25-05-2022 09:00:00 12.1 C 9.54 g/m*3 12.1 C 6.4 km/h
398 25-05-2022 09:05:00 12.3 C 9.56 g/m*3 12.3 C 6.4 km/h
399 25-05-2022 09:10:00 12.5 C 9.57 g/m*3 12.5 C 8.1 km/h
400 25-05-2022 09:15:00 12.9 C 9.69 g/m*3 12.9 C 6.4 km/h
Sensor: Nr:Datum:Temp:Abs-Feuchte:Windchill:Wind:
Aussen-T/F 401 25-05-2022 09:20:00 13.1 C 9.7 g/m*3 13.1 C 6.4 km/h
402 25-05-2022 09:25:00 13.3 C 9.7 g/m*3 13.3 C 8.1 km/h
403 25-05-2022 09:30:00 13.6 C 9.77 g/m*3 13.6 C 4.8 km/h
404 25-05-2022 09:35:00 13.7 C 9.71 g/m*3 13.7 C 8.1 km/h
405 25-05-2022 09:40:00 13.9 C 9.83 g/m*3 13.9 C 6.4 km/h
406 25-05-2022 09:45:00 14 C 9.77 g/m*3 14 C 6.4 km/h
407 25-05-2022 09:50:00 14.2 C 9.77 g/m*3 14.2 C 6.4 km/h
408 25-05-2022 09:55:00 14.3 C 9.83 g/m*3 14.3 C 6.4 km/h
409 25-05-2022 10:00:00 14.5 C 9.83 g/m*3 14.5 C 6.4 km/h
410 25-05-2022 10:05:00 14.7 C 9.82 g/m*3 14.7 C 6.4 km/h
411 25-05-2022 10:10:00 14.8 C 9.63 g/m*3 14.8 C 8.1 km/h
412 25-05-2022 10:15:00 14.9 C 9.69 g/m*3 14.9 C 4.8 km/h
413 25-05-2022 10:20:00 15.1 C 9.55 g/m*3 15.1 C 8.1 km/h
414 25-05-2022 10:25:00 15.4 C 9.46 g/m*3 15.4 C 8.1 km/h
415 25-05-2022 10:30:00 15.6 C 9.44 g/m*3 15.6 C 8.1 km/h
416 25-05-2022 10:35:00 15.9 C 9.62 g/m*3 15.9 C 6.4 km/h
417 25-05-2022 10:40:00 16.1 C 9.6 g/m*3 16.1 C 6.4 km/h
418 25-05-2022 10:45:00 16.3 C 9.43 g/m*3 16.3 C 9.7 km/h
419 25-05-2022 10:50:00 16.4 C 9.49 g/m*3 16.4 C 8.1 km/h
420 25-05-2022 10:55:00 16.7 C 9.38 g/m*3 16.7 C 9.7 km/h
421 25-05-2022 11:00:00 17 C 9.69 g/m*3 17 C 8.1 km/h
422 25-05-2022 11:05:00 17.2 C 9.52 g/m*3 17.2 C 12.9 km/h
423 25-05-2022 11:10:00 17.2 C 9.08 g/m*3 17.2 C 11.3 km/h
424 25-05-2022 11:15:00 17.1 C 9.17 g/m*3 17.1 C 9.7 km/h
425 25-05-2022 11:20:00 17.1 C 9.61 g/m*3 17.1 C 8.1 km/h
Sensor: Nr:Datum:Temp:Abs-Feuchte:Windchill:Wind:
Aussen-T/F 426 25-05-2022 11:25:00 17.4 C 9.63 g/m*3 17.4 C 12.9 km/h
427 25-05-2022 11:30:00 17.6 C 9.3 g/m*3 17.6 C 16.1 km/h
428 25-05-2022 11:35:00 17.7 C 9.51 g/m*3 17.7 C 8.1 km/h
429 25-05-2022 11:40:00 17.8 C 9.26 g/m*3 17.8 C 12.9 km/h
430 25-05-2022 11:45:00 17.9 C 9.31 g/m*3 17.9 C 9.7 km/h
431 25-05-2022 11:50:00 18.2 C 9.33 g/m*3 18.2 C 14.5 km/h
432 25-05-2022 11:55:00 18.4 C 8.65 g/m*3 18.4 C 11.3 km/h
433 25-05-2022 12:00:00 18.7 C 8.97 g/m*3 18.7 C 9.7 km/h
434 25-05-2022 12:05:00 18.8 C 8.86 g/m*3 18.8 C 11.3 km/h
435 25-05-2022 12:10:00 18.9 C 8.59 g/m*3 18.9 C 14.5 km/h
436 25-05-2022 12:15:00 18.9 C 8.75 g/m*3 18.9 C 14.5 km/h
437 25-05-2022 12:20:00 19.1 C 8.69 g/m*3 19.1 C 11.3 km/h
438 25-05-2022 12:25:00 19.3 C 8.63 g/m*3 19.3 C 11.3 km/h
439 25-05-2022 12:30:00 19.2 C 8.41 g/m*3 19.2 C 14.5 km/h
440 25-05-2022 12:35:00 19.4 C 8.68 g/m*3 19.4 C 11.3 km/h
441 25-05-2022 12:40:00 19.6 C 8.95 g/m*3 19.6 C 14.5 km/h
442 25-05-2022 12:45:00 19.8 C 8.54 g/m*3 19.8 C 11.3 km/h
443 25-05-2022 12:50:00 20.1 C 8.69 g/m*3 20.1 C 11.3 km/h
444 25-05-2022 12:55:00 20.1 C 8.87 g/m*3 20.1 C 14.5 km/h
445 25-05-2022 13:00:00 20.2 C 9.44 g/m*3 20.2 C 14.5 km/h
446 25-05-2022 13:05:00 20.4 C 9.02 g/m*3 20.4 C 16.1 km/h
447 25-05-2022 13:10:00 20.4 C 9.02 g/m*3 20.4 C 17.7 km/h
448 25-05-2022 13:15:00 20.6 C 9.49 g/m*3 20.6 C 8.1 km/h
449 25-05-2022 13:20:00 20.9 C 9.11 g/m*3 20.9 C 11.3 km/h
450 25-05-2022 13:25:00 20.9 C 9.47 g/m*3 20.9 C 12.9 km/h
Sensor: Nr:Datum:Temp:Abs-Feuchte:Windchill:Wind:
Aussen-T/F 451 25-05-2022 13:30:00 20.8 C 8.87 g/m*3 20.8 C 11.3 km/h
452 25-05-2022 13:35:00 20.4 C 8.67 g/m*3 20.4 C 16.1 km/h
453 25-05-2022 13:40:00 20.1 C 9.04 g/m*3 20.1 C 16.1 km/h
454 25-05-2022 13:45:00 20.2 C 8.57 g/m*3 20.2 C 19.3 km/h
455 25-05-2022 13:50:00 20.3 C 8.44 g/m*3 20.3 C 14.5 km/h
456 25-05-2022 13:55:00 20.1 C 8.34 g/m*3 20.1 C 17.7 km/h
457 25-05-2022 14:00:00 20.3 C 8.27 g/m*3 20.3 C 14.5 km/h
458 25-05-2022 14:05:00 20.3 C 8.44 g/m*3 20.3 C 16.1 km/h
459 25-05-2022 14:10:00 20.6 C 8.41 g/m*3 20.6 C 12.9 km/h
460 25-05-2022 14:15:00 20.6 C 8.59 g/m*3 20.6 C 17.7 km/h
461 25-05-2022 14:20:00 20.6 C 8.77 g/m*3 20.6 C 11.3 km/h
462 25-05-2022 14:25:00 20.8 C 8.51 g/m*3 20.8 C 16.1 km/h
463 25-05-2022 14:30:00 20.8 C 8.15 g/m*3 20.8 C 16.1 km/h
464 25-05-2022 14:35:00 20.6 C 8.59 g/m*3 20.6 C 12.9 km/h
465 25-05-2022 14:40:00 20.6 C 8.05 g/m*3 20.6 C 12.9 km/h
466 25-05-2022 14:45:00 20.3 C 7.91 g/m*3 20.3 C 11.3 km/h
467 25-05-2022 14:50:00 20.2 C 8.57 g/m*3 20.2 C 9.7 km/h
468 25-05-2022 14:55:00 20.7 C 8.28 g/m*3 20.7 C 14.5 km/h
469 25-05-2022 15:00:00 21.3 C 8.95 g/m*3 21.3 C 14.5 km/h
470 25-05-2022 15:05:00 21.6 C 8.16 g/m*3 21.6 C 16.1 km/h
471 25-05-2022 15:10:00 21 C 8.06 g/m*3 21 C 14.5 km/h
472 25-05-2022 15:15:00 20.5 C 8.01 g/m*3 20.5 C 12.9 km/h
473 25-05-2022 15:20:00 20.3 C 8.44 g/m*3 20.3 C 11.3 km/h
474 25-05-2022 15:25:00 20.3 C 8.62 g/m*3 20.3 C 9.7 km/h
475 25-05-2022 15:30:00 20.2 C 8.22 g/m*3 20.2 C 14.5 km/h
Sensor: Nr:Datum:Temp:Abs-Feuchte:Windchill:Wind:
Aussen-T/F 476 25-05-2022 15:35:00 20.2 C 8.57 g/m*3 20.2 C 8.1 km/h
477 25-05-2022 15:40:00 20.3 C 8.62 g/m*3 20.3 C 9.7 km/h
478 25-05-2022 15:45:00 20.9 C 8.74 g/m*3 20.9 C 14.5 km/h
479 25-05-2022 15:50:00 21.2 C 8.52 g/m*3 21.2 C 14.5 km/h
480 25-05-2022 15:55:00 21.2 C 8.34 g/m*3 21.2 C 19.3 km/h
481 25-05-2022 16:00:00 21.5 C 8.86 g/m*3 21.5 C 12.9 km/h
482 25-05-2022 16:05:00 21.7 C 8.58 g/m*3 21.7 C 16.1 km/h
483 25-05-2022 16:10:00 21.6 C 8.35 g/m*3 21.6 C 12.9 km/h
484 25-05-2022 16:15:00 21.7 C 8.2 g/m*3 21.7 C 14.5 km/h
485 25-05-2022 16:20:00 21.9 C 8.3 g/m*3 21.9 C 12.9 km/h
486 25-05-2022 16:25:00 21.9 C 7.72 g/m*3 21.9 C 17.7 km/h
487 25-05-2022 16:30:00 21.5 C 7.92 g/m*3 21.5 C 16.1 km/h
488 25-05-2022 16:35:00 21.4 C 8.44 g/m*3 21.4 C 11.3 km/h
489 25-05-2022 16:40:00 21.3 C 7.64 g/m*3 21.3 C 12.9 km/h
490 25-05-2022 16:45:00 21.3 C 7.83 g/m*3 21.3 C 12.9 km/h
491 25-05-2022 16:50:00 21.4 C 7.87 g/m*3 21.4 C 19.3 km/h
492 25-05-2022 16:55:00 21.1 C 8.11 g/m*3 21.1 C 9.7 km/h
493 25-05-2022 17:00:00 21.4 C 8.44 g/m*3 21.4 C 11.3 km/h
494 25-05-2022 17:05:00 21.6 C 8.35 g/m*3 21.6 C 22.5 km/h
495 25-05-2022 17:10:00 21.5 C 8.49 g/m*3 21.5 C 12.9 km/h
496 25-05-2022 17:15:00 21.3 C 8.39 g/m*3 21.3 C 19.3 km/h
497 25-05-2022 17:20:00 21.3 C 8.02 g/m*3 21.3 C 11.3 km/h
498 25-05-2022 17:25:00 21.3 C 8.57 g/m*3 21.3 C 11.3 km/h
499 25-05-2022 17:30:00 21.5 C 8.67 g/m*3 21.5 C 12.9 km/h
500 25-05-2022 17:35:00 21.6 C 8.35 g/m*3 21.6 C 12.9 km/h
Sensor: Nr:Datum:Temp:Abs-Feuchte:Windchill:Wind:
Aussen-T/F 501 25-05-2022 17:40:00 21.3 C 8.57 g/m*3 21.3 C 19.3 km/h
502 25-05-2022 17:45:00 21.4 C 8.62 g/m*3 21.4 C 16.1 km/h
503 25-05-2022 17:50:00 21.3 C 8.2 g/m*3 21.3 C 17.7 km/h
504 25-05-2022 17:55:00 21.1 C 8.29 g/m*3 21.1 C 17.7 km/h
505 25-05-2022 18:00:00 20.9 C 8.56 g/m*3 20.9 C 9.7 km/h
506 25-05-2022 18:05:00 20.9 C 8.56 g/m*3 20.9 C 12.9 km/h
507 25-05-2022 18:10:00 20.9 C 8.38 g/m*3 20.9 C 12.9 km/h
508 25-05-2022 18:15:00 20.7 C 8.1 g/m*3 20.7 C 12.9 km/h
509 25-05-2022 18:20:00 20.4 C 8.31 g/m*3 20.4 C 11.3 km/h
510 25-05-2022 18:25:00 20.7 C 8.46 g/m*3 20.7 C 11.3 km/h
511 25-05-2022 18:30:00 21.1 C 8.66 g/m*3 21.1 C 9.7 km/h
512 25-05-2022 18:35:00 21.3 C 9.13 g/m*3 21.3 C 8.1 km/h
513 25-05-2022 18:40:00 21.4 C 8.81 g/m*3 21.4 C 9.7 km/h
514 25-05-2022 18:45:00 21.5 C 9.24 g/m*3 21.5 C 11.3 km/h
515 25-05-2022 18:50:00 21.4 C 8.62 g/m*3 21.4 C 12.9 km/h
516 25-05-2022 18:55:00 21.3 C 8.57 g/m*3 21.3 C 19.3 km/h
517 25-05-2022 19:00:00 21.1 C 8.84 g/m*3 21.1 C 12.9 km/h
518 25-05-2022 19:05:00 20.8 C 8.87 g/m*3 20.8 C 11.3 km/h
519 25-05-2022 19:10:00 20.7 C 8.82 g/m*3 20.7 C 11.3 km/h
520 25-05-2022 19:15:00 20.4 C 8.67 g/m*3 20.4 C 11.3 km/h
521 25-05-2022 19:20:00 20.3 C 8.97 g/m*3 20.3 C 8.1 km/h
522 25-05-2022 19:25:00 20.1 C 8.52 g/m*3 20.1 C 11.3 km/h
523 25-05-2022 19:30:00 19.7 C 8.66 g/m*3 19.7 C 14.5 km/h
524 25-05-2022 19:35:00 19.5 C 8.89 g/m*3 19.5 C 11.3 km/h
525 25-05-2022 19:40:00 19.3 C 8.63 g/m*3 19.3 C 8.1 km/h
Sensor: Nr:Datum:Temp:Abs-Feuchte:Windchill:Wind:
Aussen-T/F 526 25-05-2022 19:45:00 19.1 C 8.69 g/m*3 19.1 C 11.3 km/h
527 25-05-2022 19:50:00 18.9 C 8.75 g/m*3 18.9 C 8.1 km/h
528 25-05-2022 19:55:00 18.8 C 8.86 g/m*3 18.8 C 9.7 km/h
529 25-05-2022 20:00:00 18.8 C 8.7 g/m*3 18.8 C 11.3 km/h
530 25-05-2022 20:05:00 18.7 C 8.81 g/m*3 18.7 C 11.3 km/h
531 25-05-2022 20:10:00 18.7 C 8.97 g/m*3 18.7 C 9.7 km/h
532 25-05-2022 20:15:00 18.6 C 8.91 g/m*3 18.6 C 6.4 km/h
533 25-05-2022 20:20:00 18.4 C 9.12 g/m*3 18.4 C 9.7 km/h
534 25-05-2022 20:25:00 18.4 C 8.97 g/m*3 18.4 C 8.1 km/h
535 25-05-2022 20:30:00 18.3 C 9.38 g/m*3 18.3 C 4.8 km/h
536 25-05-2022 20:35:00 18.2 C 8.86 g/m*3 18.2 C 6.4 km/h
537 25-05-2022 20:40:00 18.1 C 9.27 g/m*3 18.1 C 6.4 km/h
538 25-05-2022 20:45:00 18 C 8.91 g/m*3 18 C 9.7 km/h
539 25-05-2022 20:50:00 17.9 C 9.31 g/m*3 17.9 C 4.8 km/h
540 25-05-2022 20:55:00 17.9 C 9.16 g/m*3 17.9 C 6.4 km/h
541 25-05-2022 21:00:00 17.8 C 8.95 g/m*3 17.8 C 6.4 km/h
542 25-05-2022 21:05:00 17.8 C 9.26 g/m*3 17.8 C 8.1 km/h
543 25-05-2022 21:10:00 17.7 C 9.2 g/m*3 17.7 C 3.2 km/h
544 25-05-2022 21:15:00 17.6 C 9.15 g/m*3 17.6 C 4.8 km/h
545 25-05-2022 21:20:00 17.6 C 9.15 g/m*3 17.6 C 6.4 km/h
546 25-05-2022 21:25:00 17.4 C 9.19 g/m*3 17.4 C 6.4 km/h
547 25-05-2022 21:30:00 17.4 C 9.19 g/m*3 17.4 C 8.1 km/h
548 25-05-2022 21:35:00 17.3 C 9.28 g/m*3 17.3 C 6.4 km/h
549 25-05-2022 21:40:00 17.2 C 9.81 g/m*3 17.2 C 1.6 km/h
550 25-05-2022 21:45:00 17.1 C 9.46 g/m*3 17.1 C 4.8 km/h
Sensor: Nr:Datum:Temp:Abs-Feuchte:Windchill:Wind:
Aussen-T/F 551 25-05-2022 21:50:00 16.9 C 9.21 g/m*3 16.9 C 4.8 km/h
552 25-05-2022 21:55:00 16.8 C 9.58 g/m*3 16.8 C 3.2 km/h
553 25-05-2022 22:00:00 16.7 C 9.52 g/m*3 16.7 C 4.8 km/h
554 25-05-2022 22:05:00 16.6 C 9.32 g/m*3 16.6 C 4.8 km/h
555 25-05-2022 22:10:00 16.5 C 9.13 g/m*3 16.5 C 9.7 km/h
556 25-05-2022 22:15:00 16.4 C 9.07 g/m*3 16.4 C 4.8 km/h
557 25-05-2022 22:20:00 16.4 C 9.07 g/m*3 16.4 C 8.1 km/h
558 25-05-2022 22:25:00 16.4 C 9.07 g/m*3 16.4 C 1.6 km/h
559 25-05-2022 22:30:00 16.4 C 9.35 g/m*3 16.4 C 3.2 km/h
560 25-05-2022 22:35:00 16.4 C 9.35 g/m*3 16.4 C 3.2 km/h
561 25-05-2022 22:40:00 16.3 C 9.43 g/m*3 16.3 C 3.2 km/h
562 25-05-2022 22:45:00 16.2 C 9.52 g/m*3 16.2 C 0 km/h
563 25-05-2022 22:50:00 16.1 C 9.46 g/m*3 16.1 C 0 km/h
564 25-05-2022 22:55:00 16.1 C 9.73 g/m*3 16.1 C 0 km/h
565 25-05-2022 23:00:00 15.9 C 9.75 g/m*3 15.9 C 0 km/h
566 25-05-2022 23:05:00 15.8 C 9.83 g/m*3 15.8 C 0 km/h
567 25-05-2022 23:10:00 15.7 C 10.03 g/m*3 15.7 C 0 km/h
568 25-05-2022 23:15:00 15.6 C 9.84 g/m*3 15.6 C 0 km/h
569 25-05-2022 23:20:00 15.4 C 9.72 g/m*3 15.4 C 0 km/h
570 25-05-2022 23:25:00 15.3 C 9.79 g/m*3 15.3 C 0 km/h
571 25-05-2022 23:30:00 15.2 C 9.73 g/m*3 15.2 C 0 km/h
572 25-05-2022 23:35:00 15.1 C 9.8 g/m*3 15.1 C 0 km/h
573 25-05-2022 23:40:00 15 C 9.75 g/m*3 15 C 0 km/h
574 25-05-2022 23:45:00 15 C 9.87 g/m*3 15 C 0 km/h
575 25-05-2022 23:50:00 14.9 C 9.81 g/m*3 14.9 C 0 km/h
Sensor: Nr:Datum:Temp:Abs-Feuchte:Windchill:Wind:
Aussen-T/F 576 25-05-2022 23:55:00 14.9 C 9.81 g/m*3 14.9 C 0 km/h

Legende:
   Min
   Max


Maximal/Minimal-Werte vom 24.05.2022 - 25.05.2022

Sensor Min Max Avg
Temp
(Aussen-T/F)
8.4 °C
25-05-2022  05:20:00
21.9 °C
25-05-2022  16:20:00
15.35 °C
Abs-Feuchte
(Aussen-T/F)
7.64 g/m*3
25-05-2022  16:40:00
12.01 g/m*3
24-05-2022  00:10:00
9.66 g/m*3
Windchill
(Aussen-T/F)
7.58 C
25-05-2022  06:05:00
21.9 C
25-05-2022  16:20:00
15.3 C

Die Daten stammen von einer Davis Vantage Pro 2 Wetter-Station und werden unter Linux mit der Software wview2wettercgi und aufbereitet. Alle Angaben erfolgen ohne Gewähr für ihre Vollständigkeit oder Richtigkeit.
Kontakt: Rainer Krienke krienke@uni-koblenz.de . Meine Webseiten an der Uni Koblenz oder privat.
Version: $Revision: 0.78 $